Погода в Напасе

Погода в Напасе : погода сейчас, прогноз погоды и архив. Всё, что Вы хотите узнать о погоде в Напасе!

Хотите узнать прогноз погоды в Напасе? Тогда Вам сюда: Погода в Напасе

Поиск расширенной информации на нашем сайте:

Другие новости

Новости СМИ2

Главная страница сайта

Новости сайта

03.07.2017

Напоминаем, что на нашем специализированном сайте Метеоцентр.Азия вы можете получить высокодетализированные автоматические прогнозы погоды по пунктам России, СНГ и мира в авиационном формате (включающие направление и скорость ветра, видимость, явления погоды, количество и форму облачности, нижнюю и верхнюю границу облачности).


Погода в Напасе - сегодня

Время (UTC), дата Ветер
(°,м/с) 
Видим.   Явления Облачность Т
(°С)
Тd
(°С)
f(%) Тe
(°С)
Pmin
(гПа)
dP
(гПа)
Po
(мм)
O2
(г/м3)
Тmin Tmax R s Состояние
почвы
15 25.07.17 310 (СЗ) 4000 м  дымка  8/3 600 м кучево-дожд., средняя, верхняя 
[Cb cap|Ac cast|Ci sp]
+18.2 +17.5 96 +34  1002.6  -0.3  745  278           
18 25.07.17 тихо ()   4000 м  дымка  10/10 210 м 
[St]
+16.2 +15.9 98 +27  1002.5  -0.2  745  280           
21 25.07.17 350 (С) 10 км  дымка  10/10 180 м 
[St]
+16.1 +15.8 98 +27  1002.2  -0.3  745  280           
00 26.07.17 010 (С) 0200 м  туман  ?/?  
+15.1 +15.1 100 +25  1002.2  745  281  +15.1        мокрая 
03 26.07.17 010 (С) 4000 м  дымка{туман}  10/10 210 м 
[St]
+16.4 +15.7 96 +28  1002.4  0.3  745  280  +14.2         
06 26.07.17 010 (С) 20000 м  {туман}  6/4 600 м верхняя 
[Cu med, cong|Ci fib]
+21.5 +16.2 72 +33  1002.5  0.2  745  275           
09 26.07.17 330 (СЗ) 20000 м    9/3 600 м верхняя 
[Cu med, cong|Ci sp]
+23.7 +15 58 +32  1002  -0.5  749  275           
12 26.07.17 160 (Ю) 20000 м    9/3 600 м верхняя 
[Cu med, cong|Ci fib]
+25.2 +15.7 56 +35  1001.9  745  272    +25.7       
15 26.07.17 тихо ()   20000 м    6/3 600 м кучево-дожд., верхняя 
[Cb calv|Ci sp]
+21.3 +18.1 82 +36  1001.6  -0.4  745  274           
18 26.07.17 300 (СЗ) 4000 м  дымка  4/1 600 м верхняя 
[Sc diur, vesp|Ci fib]
+17.3 +16.3 94 +30  1001.9  0.2  745  279           
00 27.07.17 320 (СЗ) 4000 м  дымка  9/1 1000 м верхняя 
[Sc|Cc]
+15.2 +14.3 94 +25  1003.6  0.5  746  282  +13.2        влажная 
03 27.07.17 180 (Ю) 20000 м    3/0 верхняя 
[Ci fib]
+22.7 +17.4 72 +36  1003.6  0.2  746  274           
06 27.07.17 310 (СЗ) 20000 м    10/5 600 м кучево-дожд., верхняя 
[Cb cap|Ci fib]
+25.1 +16.9 60 +37  1003.6  0.1  746  272           
09 27.07.17 260 (З) 20000 м    9/8 600 м кучево-дожд., верхняя 
[Cb cap|Ci fib]
+26.6 +13.6 45 +33  1003.6  0.1  746  271           
12 27.07.17 360 (С) 20000 м    10/8 600 м кучево-дожд., верхняя 
[Cb cap|Ci fib]
+26.3 +14.3 48 +34  1003.5  -0.1  746  271    +27       
15 27.07.17 тихо ()   20000 м    10/8 1000 м средняя, верхняя 
[Sc|Ac lent|Ci fib]
+22.1 +17.4 75 +35  1003.5  -0.2  746  274           
00 28.07.17 060 (СВ) 20000 м    10/5 600 м кучево-дожд., средняя, верхняя 
[Cb cap|Ac und|Ci fib]
+16.9 +14.8 87 +27  1002  -0.8  745  280  +15.8        сухая 
03 28.07.17 040 (СВ) 20000 м  в посл. час ливневой дождь  10/8 480 м кучево-дожд., средняя 
[Cb cap|Ac und]
+19.6 +17.1 85 +34  1000.2  -1.8  744  276           
06 28.07.17 050 (СВ) 20000 м  {ливн. осадки}  10/5 1000 м средняя, верхняя 
[Sc|Ac und|Ci fib]
+25.3 +18.4 66 +41  998.2  -1.8  742  269           
09 28.07.17 290 (З) 20000 м  гроза, ливневой дождь  10/10 500 м кучево-дожд. 
[Cb cap]
+23.7 +20.5 82 +44  996.5  -1.8  741  270           
12 28.07.17 360 (С) 20000 м  гроза без осадков{ливн. осадки}  10/9 420 м кучево-дожд., верхняя 
[Cb cap|Ci sp]
+20.6 +18.5 88 +36  997.7  1.2  742  274    +27.5     
00 29.07.17 тихо ()   4000 м  дымка  10/9 800 м средняя, верхняя 
[Sc|Ac und|Ci sp]
+16.1 +15.8 98 +27  996  -0.3  740  278  +14.6        влажная 
03 29.07.17 260 (З) 4000 м  дымка  10/10 150 м 
[St]
+19 +17.7 92 +35  996.2  0.3  741  275           
06 29.07.17 310 (СЗ) 20000 м    10/10 270 м кучево-дожд. 
[Cb cap]
+19 +17 88 +33  996.3  0.1  741  275           
09 29.07.17 280 (З) 20000 м    10/6 600 м кучево-дожд., средняя, верхняя 
[Cb cap|Ac lent|Ci sp]
+24 +15.8 60 +34  996.1  -0.1  741  271           
Время (UTC), дата Ветер
(°,м/с) 
Видим.   Явления Облачность Т
(°С)
Тd
(°С)
f(%) Тe
(°С)
Pmin
(гПа)
dP
(гПа)
Po
(мм)
O2
(г/м3)
Тmin Tmax R s Состояние
почвы

Для получения пояснительной информации подведите курсор к названию столбца.

ПОГОДА в Напасе - архив

Всё, что Вы хотите узнать о погоде в Напасе - удобно и подробно!

Выберите нужную дату (начиная с 1 января 2015* года) и нажмите кнопку "Найти".
Будут отображены архивные сводки погоды по пункту Напас, начиная с указанной даты.


Отображать данные в формате CSV (для использования в таблицах Excel)


Внимание! Наш архив погоды предназначен исключительно для личного некоммерческого использования в познавательных целях. Если Вам необходимы официальные справки о состоянии погоды (для производственных, юридических, коммерческих и т.п. целей), обращайтесь в органы Росгидромета.

*Примечание: данная дата относится к архиву по метеостанциям СССР (Россия, СНГ, Балтия).
Архив по метеостанциям Зарубежной Европы и Азии (кроме Китая) хранится 10 дней, по другим регионам земного шара (Китай, Африка, Америка, Австралия, Океания) - 1 день.

Напас - район местоположения метеостанции


Название, широта, долгота, высота метеостанции:
Напас 59.9°ш. 81.9°д. 76 м над ур. моря [Российская Федерация]

Дополнительная информация

В oтличие oт бoльшинства пoгoдных сайтoв мы публикуем пoдрoбную метеoинфoрмацию в детальнoм прoфессиoнальнoм фoрмате.

Характеристики температуры и влажнoсти вoздуха измеряются на высoте 2 м в тени вдали oт зданий и деревьев.
Скoрoсть ветра измеряется на высoте 10 м (на урoвне рoста челoвека скoрoсть ветра ниже в 1.5-2 раза). Если метеoстанция нахoдится в гoрoде или в лесу, тo скoрoсть ветра занижена на 2-4 м/с пo сравнению с oткрытым местoм. Скoрoсть ветра над акватoриями крупных рек и oзёр, а также на вершинах хoлмoв на 2-5 м/с выше, чем в oбычных услoвиях.
Атмoсфернoе давление в разных тoчках местнoсти мoжет значительнo oтличаться oт давления на метеoстанции, в зависимoсти oт услoвий рельефа (при пoдъёме на 10 м давление пoнижается примернo на 1 мм рт.ст.).